TimeEST,TemperatureF,Dew PointF,Humidity,Sea Level PressureIn,VisibilityMPH,Wind Direction,Wind SpeedMPH,Gust SpeedMPH,PrecipitationIn,Events,Conditions,WindDirDegrees,DateUTC
12:53 AM,60.1,57.0,90,30.07,10.0,SW,5.8,-,N/A,,Clear,220,2013-03-06 05:53:00
1:53 AM,60.1,57.0,90,30.06,10.0,SSW,5.8,-,N/A,,Clear,210,2013-03-06 06:53:00
2:53 AM,60.1,57.0,90,30.04,10.0,WSW,6.9,-,N/A,,Mostly Cloudy,240,2013-03-06 07:53:00
3:53 AM,62.1,59.0,90,30.02,10.0,SSW,9.2,-,N/A,,Mostly Cloudy,210,2013-03-06 08:53:00
4:53 AM,62.1,57.9,86,30.02,10.0,SW,6.9,-,N/A,,Scattered Clouds,230,2013-03-06 09:53:00
5:53 AM,62.1,57.0,84,30.03,10.0,SW,6.9,-,N/A,,Partly Cloudy,230,2013-03-06 10:53:00
6:53 AM,63.0,57.9,84,30.04,10.0,SW,10.4,-,N/A,,Clear,230,2013-03-06 11:53:00
7:53 AM,68.0,61.0,78,30.05,10.0,SW,11.5,-,N/A,,Scattered Clouds,230,2013-03-06 12:53:00
8:53 AM,70.0,61.0,73,30.07,10.0,WSW,15.0,-,N/A,,Mostly Cloudy,250,2013-03-06 13:53:00
9:15 AM,66.2,60.8,83,30.09,10.0,NNW,11.5,21.9,N/A,,Mostly Cloudy,330,2013-03-06 14:15:00
9:42 AM,64.4,57.2,77,30.10,10.0,North,11.5,19.6,N/A,,Overcast,350,2013-03-06 14:42:00
9:53 AM,63.0,57.9,84,30.10,8.0,North,9.2,-,0.00,Rain,Light Rain,350,2013-03-06 14:53:00
10:53 AM,63.0,42.1,46,30.12,10.0,North,9.2,-,0.00,,Overcast,350,2013-03-06 15:53:00
11:53 AM,66.9,39.9,37,30.11,10.0,NNW,10.4,-,N/A,,Scattered Clouds,340,2013-03-06 16:53:00
12:53 PM,69.1,36.0,30,30.08,10.0,West,8.1,-,N/A,,Scattered Clouds,280,2013-03-06 17:53:00
1:53 PM,70.0,39.0,32,30.05,10.0,WNW,11.5,17.3,N/A,,Clear,300,2013-03-06 18:53:00
2:53 PM,69.1,45.0,42,30.03,10.0,WNW,12.7,20.7,N/A,,Clear,290,2013-03-06 19:53:00
3:53 PM,66.0,39.0,37,30.04,10.0,NW,17.3,24.2,N/A,,Clear,310,2013-03-06 20:53:00
4:53 PM,64.4,37.4,37,30.06,10.0,WNW,10.4,23.0,N/A,,Clear,300,2013-03-06 21:53:00
5:53 PM,61.0,41.0,48,30.06,10.0,WNW,10.4,16.1,N/A,,Clear,290,2013-03-06 22:53:00
6:53 PM,57.9,41.0,53,30.09,10.0,WNW,10.4,-,N/A,,Clear,300,2013-03-06 23:53:00
7:53 PM,55.9,41.0,57,30.10,10.0,NW,8.1,17.3,N/A,,Clear,320,2013-03-07 00:53:00
8:53 PM,55.0,41.0,59,30.11,10.0,NW,5.8,-,N/A,,Clear,310,2013-03-07 01:53:00
9:53 PM,55.0,42.1,62,30.13,10.0,NNW,5.8,-,N/A,,Clear,330,2013-03-07 02:53:00
10:53 PM,54.0,41.0,62,30.14,10.0,North,5.8,-,N/A,,Clear,350,2013-03-07 03:53:00
11:53 PM,52.0,39.9,63,30.15,10.0,North,9.2,-,N/A,,Clear,350,2013-03-07 04:53:00